RH
11 11 12 12 13 13 13 14 14 14 14 15 15 16 18 20 22 23 25 28 29 30 31 31 31 31 31 32 31 31 29 27 24 21 18 14 12 9 8 7 7 7 7 7 8 8 9 10 13 18 23 28 30 30 28 26 25 26 26 26 28 29 31 32 32 33 34 36 37 40 43 45 47 47 46 45 45 44 42 40 39 37 36 34 33 31 31 29
11 11 11 11 12 12 13 13 14 14 14 15 16 17 18 20 22 24 26 28 29 30 30 30 30 30 29 28 26 24 22 19 16 13 11 9 7 7 6 6 6 7 7 7 8 9 11 13 16 19 22 24 25 25 24 24 24 25 26 29 32 33 34 35 37 39 41 43 45 48 49 49 50 48 47 45 43 41 40 38 37 35 33 33 32 31 30 29
9 9 10 10 10 11 11 12 12 13 14 14 15 17 18 19 21 23 26 27 28 28 28 27 26 25 22 20 17 14 12 11 9 8 7 7 6 6 6 6 6 7 7 8 10 11 13 15 17 19 20 22 23 24 24 25 26 29 32 34 35 37 39 42 44 47 49 51 52 52 50 49 48 46 45 42 41 39 38 36 34 33 32 32 32 31 30 29
8 8 9 9 9 10 10 11 11 11 12 13 14 16 18 19 21 23 24 24 23 22 21 19 17 15 12 10 9 8 7 7 7 7 6 6 6 5 5 6 7 8 9 10 12 13 15 16 18 19 21 23 24 26 28 30 33 36 38 40 42 45 47 50 52 53 54 53 53 51 49 47 45 44 42 40 39 38 36 35 34 34 33 33 32 32 30 29
7 7 8 8 9 9 9 9 10 11 12 13 14 15 16 16 16 16 15 14 13 12 10 9 8 7 6 6 6 6 6 6 6 5 5 5 5 6 6 7 8 9 10 11 13 14 16 17 19 22 25 29 32 34 36 38 39 42 45 48 51 53 54 55 55 54 53 51 49 48 46 45 43 41 40 39 38 38 37 36 36 35 34 34 33 32 30 29
7 7 7 8 8 8 9 9 9 10 10 11 10 10 9 8 8 7 6 6 5 5 5 5 5 5 5 5 5 5 5 5 5 5 5 6 7 7 8 9 10 10 11 13 14 17 20 24 28 32 36 39 41 42 43 46 48 51 53 56 57 58 58 56 53 52 50 49 47 46 45 44 43 42 41 40 39 39 38 37 37 36 35 34 33 32 31 30
7 7 7 7 8 8 8 7 7 7 6 5 5 4 4 3 3 3 3 3 3 3 4 4 4 5 5 5 5 5 5 5 5 6 7 8 8 9 9 10 11 12 15 19 23 28 33 37 40 43 46 48 50 51 53 56 57 59 60 61 60 57 54 52 51 50 50 49 48 48 47 46 45 44 43 42 41 40 39 38 37 36 35 34 33 32 31 30
6 6 6 6 5 5 5 4 4 3 3 3 2 2 2 2 2 2 2 3 3 3 4 4 4 4 4 4 4 4 5 6 7 8 8 9 10 10 12 14 17 21 27 32 37 42 44 48 52 55 57 59 60 61 61 62 62 63 62 59 55 51 50 50 51 51 51 51 51 50 50 49 48 46 45 44 43 41 40 39 38 37 36 35 33 32 31 30
4 4 4 3 3 3 3 3 2 2 2 1 2 1 1 2 2 2 2 3 3 3 4 4 4 4 4 5 5 6 7 7 8 9 10 11 14 16 19 23 28 34 40 46 51 55 59 62 65 65 66 66 65 64 65 65 64 62 58 53 49 48 49 50 51 51 52 52 52 52 51 50 49 47 47 45 43 42 41 40 39 37 35 34 33 31 31 29
3 3 3 3 2 2 2 2 2 1 1 1 1 2 2 2 2 3 3 3 4 4 4 4 5 5 6 7 7 8 9 10 12 14 17 20 23 26 31 37 44 52 59 64 67 69 70 70 69 68 67 67 67 67 67 65 62 56 51 49 48 49 50 50 51 51 51 52 53 53 52 51 51 48 47 46 44 42 41 40 38 37 35 34 33 32 31 30
3 2 2 2 2 2 2 2 2 2 2 2 3 3 4 4 4 5 5 5 6 6 6 6 7 7 9 10 11 13 16 18 20 22 27 32 40 48 56 64 69 73 74 74 73 72 71 71 71 71 71 70 69 67 64 61 56 52 49 48 48 49 50 50 51 52 52 53 54 55 53 52 52 49 47 46 45 43 41 40 38 37 35 34 33 32 31 30
3 3 3 3 3 3 3 3 3 3 4 4 5 5 5 6 6 6 6 7 7 7 8 8 10 12 14 15 17 21 25 30 34 41 50 60 71 77 81 81 79 77 75 74 74 74 75 75 74 73 71 68 65 62 58 55 52 50 49 50 51 52 53 55 56 56 57 57 57 57 55 52 51 50 46 44 44 42 40 39 38 37 35 34 33 32 31 30
3 3 3 3 3 4 3 4 4 4 4 4 5 5 6 6 6 7 7 8 9 10 12 13 16 18 22 25 29 37 48 58 67 74 80 84 85 83 81 78 77 78 78 79 79 77 76 74 72 69 67 64 61 58 56 54 53 53 54 56 58 59 59 60 61 60 59 58 57 56 53 49 48 48 46 42 41 40 39 37 36 36 34 33 32 31 30 29
3 3 4 3 4 4 4 4 4 4 4 5 5 5 6 6 7 8 9 11 13 16 19 23 29 35 43 49 56 68 79 84 86 85 84 82 81 80 80 80 81 82 81 80 78 75 73 70 68 64 63 60 58 59 58 58 58 59 61 62 62 63 62 60 60 59 57 55 53 51 50 47 44 43 43 41 39 38 37 35 34 34 33 32 31 30 29 28
4 4 4 5 4 5 5 5 5 5 5 6 6 7 9 10 12 14 16 20 24 30 37 44 52 59 67 71 74 80 84 83 82 81 80 81 83 83 83 82 82 80 78 77 75 73 71 68 66 64 63 63 61 62 63 63 64 64 63 62 61 60 59 57 55 53 52 50 48 45 44 44 41 38 38 39 38 36 35 33 32 32 31 30 29 28 28 27
6 6 6 6 6 6 6 6 6 7 8 9 10 11 13 16 20 26 32 39 46 53 59 64 67 70 75 76 76 80 83 84 85 85 85 86 86 86 85 83 81 80 78 77 74 73 73 71 69 67 67 67 65 64 65 64 63 62 59 58 56 54 53 51 50 47 46 45 43 41 39 40 39 35 33 34 36 36 34 32 31 30 29 29 28 27 27 26
8 8 8 8 9 9 10 10 10 11 11 13 16 19 22 28 36 46 54 61 66 70 73 76 78 81 85 84 86 91 93 94 93 91 91 91 89 88 86 85 83 81 81 80 76 74 73 71 70 68 67 66 65 63 61 60 58 56 54 52 50 49 47 46 46 44 42 40 39 38 37 37 37 35 32 30 31 33 33 32 30 28 27 27 27 26 25 25
11 12 13 14 15 17 18 20 21 21 22 23 26 33 40 48 56 63 69 74 77 81 85 88 92 98 99 98 100 102 102 102 100 98 95 92 88 86 84 82 81 78 77 75 72 71 69 67 66 64 63 61 59 57 55 54 52 50 49 48 46 46 45 43 43 42 40 39 38 36 36 36 36 35 33 30 28 29 30 30 29 28 26 26 25 25 24 24
18 21 23 26 28 30 33 35 37 39 41 44 47 51 56 60 65 71 78 84 89 94 98 99 101 102 98 97 99 98 97 95 92 89 85 82 79 78 76 75 74 72 69 68 65 64 62 60 59 58 57 55 53 52 50 49 48 46 46 45 45 45 44 41 40 40 38 37 37 36 35 36 35 33 32 31 29 28 27 27 27 27 26 25 24 23 23 23
27 31 36 40 43 45 48 49 51 53 56 60 62 63 64 65 68 73 80 86 88 89 91 91 89 85 81 82 83 81 80 78 76 75 73 73 72 70 70 68 67 64 62 61 60 58 58 56 55 54 52 51 49 48 47 45 45 44 44 43 42 41 41 40 37 36 35 34 35 35 35 37 36 33 32 30 29 28 26 26 26 25 25 24 24 23 22 22
37 41 46 51 54 56 58 58 60 60 61 63 66 67 66 67 69 71 73 75 75 76 76 76 75 72 71 73 73 72 72 70 69 69 67 67 66 63 63 62 60 59 59 59 58 57 56 54 52 51 50 48 47 46 45 44 43 42 41 40 39 37 37 37 36 35 34 34 34 34 34 37 36 34 32 30 29 28 26 27 26 25 24 23 23 22 21 20
49 53 56 58 60 62 63 64 64 64 65 65 67 68 66 66 67 67 68 69 70 71 71 72 71 70 70 71 70 69 69 67 66 65 63 62 61 61 61 60 59 58 58 57 56 55 53 51 49 48 47 46 45 44 43 42 40 39 38 36 36 36 36 36 36 36 34 34 35 34 33 37 37 35 34 31 30 29 27 27 25 24 23 22 22 20 20 19
58 60 61 62 63 64 66 68 68 69 70 70 71 71 69 69 69 67 67 67 68 69 70 70 70 70 71 72 70 67 66 66 66 65 63 61 60 60 59 58 57 55 54 53 52 52 52 51 49 48 46 44 43 41 40 39 38 37 37 36 35 35 34 35 35 36 36 34 35 35 34 38 39 37 37 33 29 28 27 27 25 24 23 22 21 21 20 20
62 63 64 66 67 68 69 71 72 73 73 74 75 73 71 72 72 68 65 66 68 69 67 68 70 71 70 70 69 67 64 62 62 62 61 59 57 56 54 52 52 51 51 51 50 50 50 49 46 44 42 40 40 38 38 38 37 36 36 36 36 35 34 33 32 33 34 34 33 33 31 37 42 39 39 37 30 28 27 26 24 23 23 22 22 21 20 20
66 67 68 70 72 72 72 73 74 74 74 76 75 71 70 71 73 70 66 66 67 67 65 66 69 70 69 69 67 65 63 60 60 60 59 57 54 53 52 51 52 52 51 49 47 46 44 42 41 40 39 38 38 38 37 37 38 37 36 35 34 34 34 33 32 31 32 33 33 32 28 32 39 37 35 35 30 26 24 24 23 22 23 22 22 21 20 19
69 70 71 72 72 72 71 72 71 71 72 73 70 67 68 70 71 69 66 65 64 66 67 65 65 65 66 66 63 61 60 59 58 57 55 54 53 52 51 50 49 48 46 43 42 41 39 38 38 38 39 38 38 39 38 37 37 37 35 35 33 32 32 31 31 30 29 30 30 30 26 25 31 33 31 29 27 25 23 22 21 21 22 21 21 20 20 19
69 70 70 69 69 67 67 66 65 66 67 67 63 61 62 63 63 63 61 59 59 61 61 59 60 59 57 58 56 54 53 52 51 52 52 52 50 49 48 46 44 42 41 40 41 41 41 40 40 40 40 40 40 39 39 38 38 37 34 35 33 32 31 30 30 29 28 28 29 28 26 24 26 30 30 27 25 24 22 21 20 20 20 19 18 18 17 17
68 68 67 65 64 62 62 61 61 64 65 63 58 56 56 55 55 56 55 54 54 55 54 53 54 53 51 51 50 48 48 48 48 48 49 48 47 46 46 47 47 46 44 44 47 46 44 44 44 43 44 43 42 39 39 38 37 36 33 33 33 31 31 29 29 28 26 26 26 27 26 24 25 27 28 25 23 23 21 20 20 19 17 15 15 15 15 15
67 65 64 63 62 60 59 60 61 64 64 61 57 54 53 52 51 51 51 50 51 50 50 50 49 49 49 48 46 46 46 47 47 48 48 48 49 48 50 52 52 52 48 45 46 45 44 45 43 43 43 42 41 38 36 35 34 33 31 30 30 28 28 27 26 26 25 25 24 25 25 23 23 25 25 23 21 20 18 18 17 16 16 15 14 13 14 14
66 65 64 63 63 62 61 61 63 64 63 60 57 55 53 51 50 50 49 49 50 49 48 48 47 46 46 46 47 49 50 52 54 55 56 56 56 53 52 52 51 55 56 52 49 43 40 40 38 37 38 37 35 33 31 30 29 28 26 26 26 25 26 26 26 25 25 25 24 24 23 21 20 20 21 21 18 16 16 16 17 16 16 14 13 13 14 14
66 66 66 65 65 65 65 66 65 64 63 61 59 58 57 55 53 52 51 51 52 51 50 51 51 52 55 58 59 59 59 60 60 61 61 61 59 56 55 54 51 52 54 52 50 45 39 37 35 33 33 32 31 30 29 27 26 25 25 24 25 26 26 26 25 24 23 23 21 20 19 19 18 18 19 19 17 15 15 16 16 16 16 15 15 17 17 17
67 68 68 68 69 67 68 69 68 67 67 65 64 63 61 59 58 57 56 56 56 57 59 60 62 65 67 68 69 68 66 64 62 61 60 60 59 57 55 54 53 53 53 51 50 48 43 39 36 33 32 30 30 29 29 28 28 27 26 25 25 24 23 22 21 20 20 20 19 19 19 19 19 19 18 16 16 16 16 17 18 18 18 19 19 20 18 17
70 71 71 73 74 72 71 71 70 69 68 67 67 66 64 63 62 63 63 64 64 65 65 66 66 67 67 68 67 66 65 64 62 60 58 56 54 52 48 45 43 43 44 43 42 41 40 37 35 34 33 31 30 30 29 29 27 26 24 22 21 19 18 18 17 18 18 19 20 19 18 18 19 19 19 19 21 22 21 21 21 20 19 19 18 16 14 12
75 75 73 74 75 75 74 74 73 72 71 70 70 68 66 65 65 65 66 67 66 65 64 63 64 63 63 65 63 61 60 59 55 52 50 48 46 43 40 37 36 34 34 34 34 35 35 34 33 32 31 30 28 26 25 23 22 21 20 19 19 19 18 18 17 16 16 16 17 18 19 21 22 22 22 23 25 24 20 18 17 15 13 12 11 10 9 7
79 79 77 76 76 76 75 74 74 73 72 70 69 67 65 64 64 64 64 64 64 64 64 63 63 64 62 61 58 54 53 51 48 45 42 40 39 38 37 36 36 36 36 35 34 33 33 31 28 27 26 24 23 21 20 20 20 21 21 20 20 19 18 18 18 18 18 18 20 21 23 24 22 20 19 17 16 14 12 10 9 8 7 6 7 7 7 7
80 80 79 77 76 74 72 70 68 67 67 66 66 66 66 66 67 67 67 67 67 67 67 65 63 62 59 56 52 48 45 44 42 40 39 39 38 38 38 37 37 36 34 33 31 29 28 26 24 23 22 21 21 22 22 23 23 22 21 20 20 21 22 24 26 27 25 23 22 20 19 18 15 12 11 10 9 8 7 7 6 6 6 6 7 7 7 8
77 76 75 72 70 67 65 64 63 64 65 65 67 70 71 71 72 72 71 70 69 67 65 63 59 56 53 50 48 45 43 41 40 39 39 39 38 37 36 34 33 31 29 27 26 24 23 24 23 22 22 23 24 25 24 24 24 24 24 25 27 29 30 29 28 26 22 19 16 14 12 11 8 7 6 6 6 6 6 6 6 6 7 7 7 7 7 7
69 68 66 64 63 62 61 63 65 68 71 72 74 75 75 75 73 71 68 65 63 59 57 55 52 50 49 47 45 43 42 40 39 38 36 35 33 32 30 28 26 25 24 23 23 23 23 25 27 26 26 26 24 24 26 27 30 32 33 32 31 29 26 23 20 16 13 11 9 8 8 8 6 5 5 5 5 5 5 5 6 5 5 6 6 6 6 6
61 60 60 59 61 62 65 68 70 73 75 75 76 74 71 69 65 62 59 56 54 52 51 49 47 46 45 43 42 40 38 36 34 32 30 29 27 25 25 24 24 24 25 25 25 26 25 26 29 29 28 28 28 30 33 35 35 34 32 28 24 20 17 14 12 10 8 6 5 5 6 8 8 5 5 5 4 5 5 4 5 5 5 5 5 5 5 5
60 60 60 62 65 67 69 72 73 74 73 71 68 64 61 58 55 54 52 51 50 48 47 45 43 41 39 37 35 32 30 29 27 26 25 25 25 25 26 27 27 27 27 27 27 28 28 28 32 34 35 36 36 35 34 32 29 25 22 18 15 12 9 8 7 7 6 6 5 5 6 9 10 7 6 6 5 5 6 5 5 5 5 5 5 5 4 4
64 64 65 67 68 69 70 70 69 67 64 61 58 54 53 51 50 49 46 45 43 41 39 37 34 33 30 29 27 26 26 25 25 26 26 27 28 28 28 29 29 30 31 32 32 33 35 35 37 38 37 35 32 29 25 22 19 16 13 11 9 8 7 6 6 6 7 7 7 6 7 9 11 9 8 8 7 7 7 7 7 6 6 6 5 5 5 4
67 68 68 69 68 67 65 62 59 56 53 51 49 47 46 44 42 40 38 36 34 31 30 28 27 26 25 26 26 26 27 28 28 29 29 30 30 31 32 33 35 37 38 39 39 38 38 36 34 31 27 24 21 18 16 14 13 12 11 10 9 9 9 8 7 7 8 8 8 8 8 9 12 11 9 9 9 8 8 8 8 7 6 6 6 6 6 5
68 68 65 63 61 58 55 52 49 47 45 43 41 39 37 35 33 31 29 28 27 26 26 25 26 27 28 29 30 30 31 31 32 33 34 36 37 38 40 40 41 41 40 39 36 33 30 26 23 20 17 16 15 14 14 15 16 16 14 12 10 10 10 9 9 8 8 9 10 10 10 9 12 12 10 10 9 9 9 9 9 8 7 7 7 6 6 6
60 58 55 53 51 48 46 44 42 39 37 35 33 31 29 28 27 27 26 26 27 28 29 30 31 32 31 32 31 32 35 37 39 41 42 43 43 43 42 40 39 36 32 29 26 22 20 17 14 13 12 12 13 14 16 18 19 19 17 14 12 11 11 11 12 12 11 12 13 13 12 10 11 12 11 10 11 11 10 10 10 9 9 8 8 7 7 7
50 48 47 44 42 40 38 35 33 31 30 29 28 28 27 27 28 29 30 32 33 33 34 33 33 33 34 35 37 39 42 43 44 44 43 42 40 38 35 32 28 25 21 19 16 15 14 13 13 14 14 13 13 15 16 17 19 20 20 18 16 14 13 15 17 17 16 15 14 14 13 11 12 13 12 11 12 12 11 11 11 11 11 11 10 9 8 8
42 40 38 36 34 32 30 29 28 28 28 28 28 29 31 33 34 36 37 37 36 36 35 36 38 40 42 44 45 45 45 44 42 40 37 34 31 27 24 21 19 17 15 15 14 15 16 16 17 18 19 19 18 19 20 20 22 23 22 21 20 18 18 19 21 21 19 16 15 16 14 13 15 15 13 12 13 12 11 12 13 13 13 13 12 11 10 10
34 32 30 29 28 28 28 28 29 30 31 32 33 35 36 38 39 39 39 40 41 42 43 45 47 47 47 46 44 42 39 37 34 30 27 23 21 19 17 17 16 16 17 17 17 18 19 21 22 23 24 23 22 23 23 23 25 25 25 24 23 22 22 22 24 24 23 20 18 18 16 16 18 17 15 14 13 13 13 14 15 15 14 14 14 14 13 12
28 27 27 28 29 31 32 33 33 34 35 35 37 39 41 43 44 45 46 47 48 49 49 49 48 45 43 40 37 34 30 27 24 22 20 19 18 18 18 18 18 19 20 20 21 22 23 23 23 24 26 25 24 25 25 25 26 27 27 26 24 22 23 25 28 28 28 25 21 19 18 18 18 18 16 15 16 16 16 17 19 19 17 15 14 13 13 13
27 29 31 34 36 38 38 37 37 37 39 42 46 49 51 52 52 52 52 51 51 49 47 44 41 38 34 31 27 24 22 21 20 19 19 19 19 19 20 20 21 22 23 23 23 23 23 23 23 23 25 26 25 25 24 25 25 25 26 25 23 22 24 29 32 30 28 25 20 17 16 16 17 18 17 17 18 19 19 19 20 19 16 14 12 12 12 14
35 39 42 41 39 38 37 39 42 47 53 57 59 59 58 56 54 53 51 49 46 43 39 36 33 29 25 23 21 20 19 19 19 19 20 20 21 21 22 23 23 24 24 23 23 23 22 22 22 22 23 25 25 25 24 26 27 27 26 24 23 23 25 28 28 26 23 20 16 14 15 15 16 17 16 16 17 18 18 17 18 18 16 14 12 12 13 15
44 43 41 38 38 41 46 52 58 61 63 63 60 58 55 53 50 47 44 41 38 35 31 28 25 22 21 20 19 20 20 21 22 23 23 24 25 25 25 25 25 24 24 23 23 23 23 23 22 21 22 24 24 23 23 24 26 28 27 24 22 21 21 21 21 22 22 19 15 15 15 16 16 14 13 13 14 15 15 16 17 16 15 14 12 13 15 15
41 39 41 45 51 58 63 65 65 63 60 58 55 52 49 46 42 39 36 33 30 27 24 22 21 20 21 21 22 22 24 26 28 28 29 29 29 29 28 27 27 26 25 25 25 25 24 23 23 22 21 21 21 20 21 21 23 25 25 22 20 19 18 18 19 22 22 20 17 16 16 15 14 13 12 12 12 12 13 13 14 14 12 11 11 13 14 13
Wind_Speed
49 50 51 52 52 53 53 54 55 55 56 56 56 56 55 55 55 55 56 57 58 59 60 60 61 61 61 61 62 61 61 61 61 60 58 56 54 52 50 48 47 46 46 45 43 41 40 39 39 39 39 40 40 39 37 36 34 32 30 29 29 29 28 28 28 28 27 27 26 26 26 26 26 28 29 30 32 33 35 36 37 38 39 41 42 43 44 45
49 50 51 52 53 53 54 55 56 57 57 57 57 57 57 57 57 57 57 59 60 61 62 62 62 62 62 62 61 60 59 58 57 55 53 50 48 45 43 41 40 38 37 36 35 34 33 32 32 33 33 33 32 32 30 29 28 27 26 26 26 25 25 25 25 24 24 23 23 24 24 26 27 29 30 32 34 35 36 37 38 39 41 42 43 45 46 47
49 51 52 53 53 54 55 56 57 58 58 58 58 58 58 58 58 58 59 60 61 62 63 63 63 62 61 60 59 56 54 52 50 48 45 43 40 38 36 34 32 31 29 28 26 26 25 25 26 26 25 25 25 25 25 24 24 23 23 23 22 22 22 22 22 21 21 21 22 24 26 27 29 31 32 33 35 36 38 39 40 41 42 43 45 46 47 48
50 51 52 53 54 55 56 57 58 58 59 59 59 59 59 59 59 60 61 61 62 62 62 61 60 59 57 55 52 48 45 43 41 39 37 35 33 32 29 27 25 23 22 21 20 20 20 20 20 20 20 20 20 21 21 20 20 20 20 20 20 20 20 20 19 19 20 22 24 26 28 29 31 32 34 35 36 38 39 41 42 43 44 45 46 47 49 50
50 51 53 54 55 56 57 57 58 58 58 58 59 59 59 59 59 60 60 60 60 59 57 55 53 50 47 45 42 39 36 34 33 32 30 28 26 24 22 20 19 17 16 16 16 16 16 17 17 17 17 17 17 17 17 18 18 19 19 19 19 19 18 18 19 20 22 24 26 28 30 31 33 34 35 36 37 39 41 42 43 44 45 46 47 49 50 51
50 51 53 54 55 56 57 57 58 58 58 58 58 57 57 56 56 55 54 53 52 50 48 45 43 40 37 35 32 30 29 28 26 24 23 21 19 17 16 15 14 14 14 14 15 15 15 15 15 15 15 15 15 16 17 17 18 18 18 18 17 17 17 18 20 22 24 26 28 29 31 32 34 35 36 38 39 41 42 43 44 46 47 48 49 50 52 53
50 51 52 54 55 55 56 56 55 55 54 53 51 50 49 48 47 46 45 43 41 39 37 35 32 30 28 26 25 23 22 21 20 18 16 15 14 13 13 13 14 14 15 15 15 15 15 15 15 15 15 15 16 17 17 17 16 16 16 16 16 17 19 20 22 24 25 27 28 30 31 33 35 36 37 39 41 42 43 45 46 48 49 50 51 52 53 55
48 49 50 50 50 50 49 48 47 45 43 42 40 39 38 37 36 35 34 32 31 29 27 25 23 22 21 20 19 18 17 16 14 13 13 13 13 13 14 15 16 17 17 17 16 16 16 16 16 17 17 17 16 16 15 14 14 15 15 16 18 19 21 22 23 25 26 28 29 31 32 34 36 37 39 41 42 44 45 47 48 50 51 52 53 54 55 57
42 42 41 41 40 39 38 37 35 33 32 30 30 29 28 27 26 26 25 24 23 21 20 19 18 16 16 15 14 14 13 14 14 14 15 15 16 17 18 19 19 19 19 19 19 18 18 18 17 17 16 15 14 13 13 14 14 16 17 18 19 21 22 23 24 26 27 29 30 32 34 36 38 39 41 43 44 46 47 49 50 52 53 54 56 57 58 59
32 31 31 30 29 29 27 26 24 23 23 22 21 21 21 21 20 20 19 18 17 16 15 14 14 13 13 14 14 15 15 16 17 18 19 19 20 20 21 22 22 22 22 21 20 20 19 17 16 15 14 13 12 13 14 15 16 17 18 19 20 21 23 24 26 27 29 30 32 34 36 38 40 42 42 45 47 48 49 51 53 54 55 56 58 59 61 61
22 21 21 20 20 19 18 18 17 17 17 17 17 17 17 17 16 16 16 15 15 15 16 16 17 17 18 18 19 19 20 20 21 22 23 24 25 25 25 25 24 23 22 21 19 18 16 15 14 13 12 12 12 13 14 15 16 17 18 20 21 22 24 26 28 29 31 33 34 36 39 40 42 44 45 46 48 50 51 53 54 56 57 59 60 62 63 64
12 11 11 11 11 11 11 12 12 14 14 15 14 14 14 15 15 16 17 18 19 20 20 21 21 22 22 23 24 25 26 27 27 28 29 29 29 28 27 25 23 22 20 18 16 15 14 13 12 11 11 12 12 13 15 16 16 17 19 20 22 24 25 27 29 31 33 35 36 38 41 42 42 46 48 47 49 52 54 55 56 58 60 61 62 64 66 67
3 3 3 4 5 6 7 9 11 13 14 14 15 15 16 17 18 19 21 22 23 24 25 26 27 28 28 29 31 32 33 33 32 32 31 29 28 26 24 22 20 18 16 15 13 12 11 11 11 11 11 12 13 14 15 16 17 18 20 22 23 26 28 29 31 33 35 37 38 39 44 46 43 45 51 51 51 53 56 57 57 59 62 64 65 66 68 69
7 7 7 7 7 7 8 10 12 14 16 17 18 19 20 21 23 24 25 27 29 30 32 33 34 35 35 36 36 36 35 33 32 30 28 26 24 22 20 19 17 15 13 12 11 10 9 9 10 10 11 12 13 14 16 17 18 20 22 24 25 28 30 32 33 35 37 39 40 40 44 50 48 45 50 54 54 55 58 60 60 61 64 66 67 69 71 72
15 15 15 14 14 13 14 15 17 19 21 22 23 25 27 29 31 32 33 35 36 38 39 39 39 39 38 37 36 35 32 30 28 26 24 22 20 18 17 15 13 12 10 9 8 8 8 8 9 10 11 13 14 16 17 19 21 23 25 27 28 30 32 34 37 37 38 41 44 43 43 52 55 50 49 54 57 58 61 64 64 64 66 68 69 71 73 74
23 24 24 24 23 23 22 23 24 26 27 29 31 33 35 37 39 41 41 42 42 42 42 40 39 38 36 34 32 31 28 26 23 22 20 18 16 15 13 11 10 9 7 7 7 7 7 9 10 12 13 15 17 18 20 22 23 25 27 29 31 33 34 35 39 40 40 42 46 46 45 51 59 58 54 53 56 59 63 67 68 68 69 70 71 73 75 76
32 32 33 33 33 33 33 32 32 33 34 36 38 40 41 43 45 45 45 45 43 42 40 38 36 34 32 30 28 26 24 22 20 18 16 14 13 11 10 8 7 6 6 6 6 7 9 11 12 14 15 17 19 21 23 25 26 28 30 31 33 35 37 37 40 43 43 44 48 48 46 50 60 64 62 59 58 58 63 69 72 73 73 74 75 76 77 79
39 40 41 41 41 42 42 41 41 40 40 41 43 44 46 46 47 46 45 43 41 39 37 34 33 30 27 26 25 23 21 18 16 15 13 12 10 9 7 6 5 5 6 6 8 9 11 12 14 16 18 20 22 23 26 27 29 31 32 34 36 38 40 40 42 46 45 46 50 52 49 52 60 65 67 67 65 62 64 68 73 77 79 79 79 79 81 82
45 46 46 46 46 46 46 46 46 45 45 44 44 45 45 45 45 44 42 40 37 36 33 31 28 26 24 24 22 19 18 16 14 12 11 9 8 6 5 5 5 6 7 8 10 11 13 15 16 18 20 22 24 26 28 30 32 34 35 37 38 41 44 45 45 48 49 47 52 55 52 54 61 66 69 73 72 70 69 70 73 78 82 83 83 84 84 85
46 48 48 48 48 47 47 47 46 46 46 45 43 42 41 41 40 40 38 36 34 32 30 28 25 23 22 20 18 16 14 12 11 9 8 7 5 4 4 5 7 8 9 11 12 14 16 18 20 22 23 26 28 29 31 33 35 37 38 40 42 43 46 49 49 51 53 51 53 58 56 57 63 67 71 75 76 76 75 74 76 79 82 85 86 87 88 89
46 47 48 48 47 47 46 45 44 44 43 42 40 38 37 36 35 35 34 32 30 28 26 24 22 20 18 16 14 12 11 9 7 6 5 5 5 5 6 8 9 11 12 13 15 17 19 22 24 26 28 30 31 33 35 37 39 40 42 43 45 46 48 51 53 54 56 55 56 60 60 60 65 69 72 76 79 81 80 78 80 82 85 86 88 90 91 92
46 46 46 46 46 45 44 43 41 40 39 38 37 34 32 32 31 29 29 28 26 24 23 21 18 16 14 12 10 9 7 6 5 5 5 6 6 7 9 10 12 13 15 17 19 21 24 26 28 30 32 33 35 37 39 41 42 44 46 47 49 50 50 53 56 57 59 60 60 63 63 63 67 71 75 79 81 84 85 83 84 85 88 90 91 92 93 94
44 44 44 43 42 42 41 40 38 37 36 34 33 31 29 28 26 24 24 24 22 20 18 17 15 13 11 9 7 5 5 4 4 5 6 7 9 10 12 13 16 17 19 21 23 25 28 30 32 34 35 37 39 41 43 45 47 48 50 51 52 55 55 55 58 60 62 64 64 66 65 65 69 73 77 81 84 87 88 88 89 89 91 93 94 95 95 95
41 41 40 39 38 37 37 36 35 33 32 31 28 27 26 25 23 20 19 19 18 16 14 13 11 9 7 5 3 2 3 4 5 7 9 10 12 14 16 18 20 22 24 26 28 29 32 34 36 38 40 41 43 45 46 48 51 52 53 55 56 58 60 61 62 62 65 68 70 71 69 67 71 76 79 83 86 88 90 91 91 92 93 95 96 97 97 97
37 36 36 35 33 32 32 31 31 29 28 27 24 23 22 21 20 17 16 15 13 11 9 7 6 4 2 1 1 3 5 6 8 10 12 14 16 18 20 22 24 27 29 30 32 34 36 38 40 42 44 45 47 49 51 52 54 57 58 59 60 62 64 65 67 67 68 70 73 76 74 69 71 78 82 87 90 90 91 93 93 93 95 96 97 98 98 98
33 32 31 30 29 28 27 27 26 25 24 23 21 19 18 17 15 14 12 10 8 6 4 3 2 2 2 4 6 7 9 11 13 14 17 19 21 23 25 27 28 31 33 34 36 38 40 42 44 46 47 49 51 53 55 56 57 60 62 63 65 66 67 69 71 72 72 73 76 80 80 75 74 79 84 89 93 94 94 95 94 94 96 97 97 98 99 99
30 29 28 27 25 24 24 23 22 21 20 18 16 15 13 12 10 8 6 5 4 3 3 3 5 7 7 9 11 12 14 16 17 20 22 23 25 27 29 31 33 35 36 38 40 42 44 46 47 49 51 53 55 57 59 60 61 63 65 66 68 70 71 73 75 76 77 77 79 82 85 82 80 82 87 90 93 96 96 96 96 97 98 98 98 97 98 97
26 25 24 24 22 21 20 19 17 16 15 13 11 10 8 7 6 4 2 1 2 4 6 7 9 10 12 13 15 17 19 20 22 24 26 28 30 31 33 35 37 39 40 42 44 46 48 49 51 53 55 57 59 61 62 64 65 67 68 69 72 73 75 76 78 80 81 81 82 84 87 87 84 86 90 92 94 98 98 97 98 100 101 102 100 99 97 96
23 22 21 20 18 17 15 14 13 11 9 8 7 5 4 3 1 1 2 3 5 7 9 11 13 14 16 18 19 21 23 24 26 28 30 31 33 34 36 38 40 43 44 46 48 49 51 53 55 57 59 61 63 65 66 67 69 70 72 72 75 77 78 80 82 83 84 85 86 87 89 90 87 87 92 94 95 98 99 97 98 100 102 104 103 101 100 99
20 19 17 16 14 13 11 10 9 7 5 4 3 2 1 2 4 5 6 8 10 11 13 15 16 18 20 22 24 25 27 28 30 32 33 35 37 38 40 41 43 46 48 50 53 54 55 57 59 60 62 64 66 68 70 71 73 74 75 76 77 79 80 82 85 86 87 89 90 90 92 93 90 88 92 95 96 97 96 96 98 100 102 104 105 104 103 103
17 15 14 12 11 9 8 6 5 3 2 1 2 4 5 6 8 9 11 12 14 16 17 19 21 23 25 26 28 30 31 32 34 35 37 39 41 42 44 45 47 49 51 54 56 59 60 61 63 65 66 68 70 72 74 76 77 78 79 80 80 82 83 84 87 89 90 91 92 92 93 94 93 92 93 96 98 98 96 96 98 100 102 103 104 105 105 104
13 12 11 10 8 7 5 3 3 3 4 5 6 8 9 11 12 14 15 17 18 20 21 23 25 27 29 30 32 33 35 36 37 39 41 43 44 46 48 49 50 52 54 57 59 62 65 67 68 69 71 72 73 75 77 79 81 83 84 85 86 86 86 86 88 90 91 91 92 93 93 94 94 95 95 96 98 99 98 98 99 100 102 103 105 107 107 106
10 9 8 7 5 4 4 4 5 6 7 8 10 11 13 14 16 17 19 21 22 24 25 27 28 30 31 33 35 36 38 39 41 42 44 46 48 49 51 53 54 55 57 59 61 64 67 70 72 73 75 77 77 78 79 81 83 85 87 88 89 90 89 88 88 89 90 90 92 93 94 94 94 95 96 95 97 100 100 100 102 103 103 103 106 108 108 107
8 7 6 5 5 5 6 7 8 9 10 12 13 15 16 18 19 21 23 24 26 27 29 30 31 33 34 36 38 39 41 43 44 46 47 49 51 53 55 56 58 60 61 62 64 66 69 72 74 76 77 79 80 81 82 84 85 87 88 89 90 92 92 92 92 92 92 91 91 92 93 95 95 95 96 96 97 99 99 99 100 101 99 99 102 105 106 105
8 7 6 7 7 8 9 10 11 12 13 15 16 18 20 21 23 24 26 27 29 30 32 33 35 36 38 40 41 43 44 46 48 50 51 53 55 57 58 60 62 64 65 66 68 69 72 76 78 79 80 81 82 83 84 86 87 89 90 92 92 94 94 95 95 96 97 95 94 95 95 97 96 95 96 96 94 96 97 95 95 97 96 95 97 99 100 101
9 9 9 9 10 10 11 12 14 15 17 18 20 21 23 24 26 27 28 30 31 33 35 36 38 40 41 43 45 47 48 50 52 54 55 57 59 61 62 64 66 67 69 70 71 72 73 77 81 81 83 84 84 85 86 88 89 91 93 94 95 95 96 97 98 99 100 99 98 98 97 98 97 93 94 93 91 90 92 92 92 94 94 93 93 94 94 96
10 10 11 11 12 13 14 16 17 18 20 21 23 24 26 27 28 30 32 33 35 37 38 40 42 44 45 47 49 51 53 54 56 57 59 61 62 64 66 67 69 71 72 73 74 75 74 77 81 83 84 85 86 87 88 90 92 94 96 97 97 97 98 99 100 101 102 101 99 97 97 97 97 93 92 91 89 87 85 85 85 86 88 88 87 87 88 89
12 12 13 14 15 16 17 19 20 21 23 24 26 27 29 30 32 34 35 37 39 40 42 44 45 47 49 50 52 54 56 58 59 61 62 64 65 67 68 70 71 73 74 75 76 77 77 77 80 84 85 86 88 89 89 91 93 96 99 100 100 100 99 99 100 100 101 99 97 94 92 94 96 94 92 91 89 86 84 82 81 81 82 82 81 81 82 84
14 15 16 17 18 19 21 22 23 25 26 27 29 30 32 34 35 37 39 40 42 44 45 47 49 50 52 53 55 57 58 60 62 63 64 66 67 69 70 71 73 74 76 77 78 79 80 79 81 84 87 89 90 91 91 93 95 98 101 102 102 101 99 97 96 97 97 96 95 92 88 89 94 93 92 91 88 86 85 83 82 82 82 81 80 79 79 79
17 18 19 20 21 23 24 25 26 28 29 31 33 34 36 37 39 40 42 43 45 47 48 50 52 53 55 56 57 59 60 62 63 65 66 67 69 70 72 73 75 77 78 80 81 82 83 82 82 85 88 91 93 94 95 96 97 99 101 102 101 100 98 94 92 92 93 93 94 93 88 88 92 93 92 93 90 87 87 86 85 87 86 85 85 84 81 80
20 21 22 23 24 26 27 28 30 31 33 34 36 37 39 40 41 43 45 46 48 49 51 53 54 56 57 58 60 61 62 63 65 66 68 69 71 72 74 75 77 78 80 81 83 84 84 85 85 87 90 92 93 94 94 94 95 97 99 100 99 99 98 95 92 90 90 92 94 94 90 88 91 94 94 95 94 92 93 93 92 92 91 91 91 91 89 87
22 24 25 26 27 29 30 31 33 34 35 37 38 39 41 42 44 46 47 49 50 52 53 55 56 57 59 60 62 63 64 66 67 69 70 71 73 74 75 76 78 79 81 83 85 87 87 87 87 88 89 90 90 90 90 90 92 94 96 98 97 97 97 96 94 91 89 90 92 94 92 88 90 95 95 96 96 95 96 97 97 96 95 94 95 95 95 94
25 26 27 29 30 31 33 34 35 36 37 39 40 42 43 45 47 48 50 51 52 54 55 57 58 59 61 62 64 65 67 68 69 70 72 73 74 76 77 78 80 82 84 85 87 89 90 89 87 85 85 86 86 86 86 87 89 92 94 96 97 96 96 96 95 93 91 91 93 95 94 88 88 93 94 94 95 96 96 97 97 97 96 96 96 96 96 95
27 29 30 31 32 33 34 36 37 38 39 41 42 44 45 47 48 50 51 53 54 56 57 59 60 62 63 64 65 66 67 68 70 71 73 75 77 79 80 82 84 85 86 86 87 87 88 87 86 84 83 83 81 80 81 82 85 88 92 95 97 97 97 96 96 97 96 95 96 98 98 92 89 92 94 93 94 96 96 96 96 97 96 95 96 96 96 96
29 30 31 32 33 35 36 38 39 40 42 43 44 46 47 48 50 52 53 55 57 58 59 60 61 62 63 65 66 67 68 69 71 73 75 77 79 81 83 83 84 84 84 84 83 83 84 84 84 84 85 85 84 82 82 83 84 88 91 95 98 99 99 98 98 100 101 99 97 99 102 98 93 94 95 93 94 96 96 96 95 95 95 95 96 96 96 96
30 32 33 34 35 37 38 39 41 42 43 44 46 47 49 51 52 54 55 56 57 58 59 60 61 62 64 65 67 69 71 73 74 76 78 79 79 80 80 80 80 80 79 79 79 79 79 80 80 81 82 86 87 86 87 87 88 90 93 96 98 99 99 98 96 97 101 101 97 97 101 100 96 96 97 95 96 97 97 96 96 95 95 95 96 97 97 95
32 34 35 36 37 38 39 40 42 43 44 46 48 49 51 52 53 54 54 55 56 58 59 60 62 63 65 67 69 71 73 75 76 76 76 76 76 76 76 76 76 77 77 77 77 76 77 77 77 77 79 84 87 86 86 87 87 89 92 94 96 96 95 93 91 92 96 98 97 96 98 97 95 96 97 97 97 98 97 96 96 97 97 96 96 96 96 95
34 35 36 37 38 39 40 42 43 45 46 48 49 49 50 50 51 52 54 55 57 59 61 62 64 66 67 69 70 70 70 71 71 71 70 70 71 72 73 73 74 75 76 76 76 76 75 76 76 74 74 79 84 84 83 82 82 84 87 90 93 92 89 87 85 85 88 90 94 96 96 94 92 94 96 95 95 96 96 95 95 96 98 98 98 97 97 96
35 36 37 38 39 40 42 44 45 46 46 46 46 47 48 49 51 53 55 58 59 61 63 64 66 67 68 68 67 66 65 64 64 65 66 67 68 69 71 72 73 75 75 76 76 76 75 75 75 72 69 71 76 78 77 77 77 79 82 87 91 88 83 80 79 81 83 85 92 98 97 92 89 90 92 92 91 92 93 93 94 96 100 101 101 100 98 97
36 37 38 40 41 42 43 43 43 43 43 44 45 47 49 51 54 56 58 60 62 64 65 66 66 65 64 63 63 62 62 62 63 64 65 67 68 69 71 72 73 75 75 76 77 77 76 75 75 71 65 63 67 69 69 70 72 76 79 83 87 85 81 79 78 81 83 85 92 99 97 92 88 88 91 90 89 90 92 93 94 96 99 102 103 102 99 98
38 39 40 41 41 41 41 40 41 41 43 45 47 50 52 55 57 59 61 62 63 63 63 62 61 61 60 60 61 61 63 64 66 67 68 69 70 71 72 73 75 75 76 77 77 77 76 74 73 71 64 60 62 62 60 61 64 70 75 79 81 82 82 82 81 82 84 86 90 95 94 92 91 91 92 91 89 90 92 92 93 94 97 101 102 101 100 100
38 38 38 38 38 38 39 40 42 44 46 49 51 54 56 58 59 61 62 62 61 60 59 58 58 58 59 60 61 62 64 66 68 69 70 70 72 73 74 75 77 77 76 76 75 75 75 74 73 72 67 62 61 60 57 57 61 67 73 78 79 80 84 85 82 80 81 83 86 89 91 93 95 95 95 94 92 92 92 93 93 94 98 100 98 98 100 101
Wind_Direction
252 252 253 253 254 255 256 256 257 259 260 261 262 263 263 264 265 266 267 268 269 269 270 270 271 272 272 273 274 276 277 278 279 279 279 279 278 277 275 273 270 268 267 267 266 265 262 260 257 256 255 256 257 259 261 261 261 259 256 253 251 251 250 249 248 247 248 249 250 253 256 260 263 266 268 271 272 274 275 277 278 280 281 283 284 285 286 287
254 254 254 255 255 256 256 257 258 259 260 261 262 263 264 265 266 266 267 268 268 269 270 270 271 272 273 274 275 276 276 277 277 278 278 277 276 275 273 271 269 267 265 264 262 260 257 255 253 252 252 253 255 256 256 255 253 250 247 246 246 244 243 242 241 242 244 247 251 255 259 262 264 266 268 270 272 273 275 277 279 280 281 283 284 286 287 287
254 255 255 256 256 256 257 258 259 260 261 262 263 264 265 266 267 267 268 268 268 269 270 271 272 273 274 274 275 275 275 275 275 275 274 274 272 271 269 267 265 263 261 258 255 252 249 247 246 246 246 247 247 247 245 244 242 240 240 238 237 235 234 234 236 240 244 249 254 257 261 263 265 267 268 270 272 274 276 278 279 280 281 283 285 286 287 288
256 257 257 258 258 258 259 260 261 262 263 264 264 266 266 267 268 268 268 268 269 269 270 271 272 272 273 274 274 274 273 272 271 270 269 268 267 266 264 262 259 255 251 246 241 238 235 234 234 233 233 233 233 233 233 233 232 230 228 226 225 225 227 231 236 242 248 253 256 260 262 265 266 268 270 272 274 276 277 278 280 281 282 283 285 286 287 288
259 259 259 260 260 261 262 262 263 264 265 266 267 267 268 268 268 268 268 268 268 269 269 270 270 270 270 269 269 269 267 266 265 264 264 263 262 260 257 252 246 239 232 227 222 219 218 217 216 216 215 217 219 220 220 219 217 215 214 215 218 222 228 235 241 247 252 256 259 262 264 266 268 270 272 273 275 277 278 279 280 281 282 283 284 285 287 288
260 261 261 262 262 263 263 264 264 265 266 266 266 266 266 265 265 264 264 264 265 265 265 265 265 264 263 262 261 260 258 257 257 257 256 255 251 246 239 230 221 213 206 202 198 197 196 196 197 197 198 201 203 204 204 203 204 205 208 212 219 227 234 241 247 251 255 258 261 264 266 268 270 272 274 276 277 278 279 280 281 282 282 283 284 285 287 288
263 263 263 263 264 264 264 264 264 264 264 264 263 262 262 261 260 260 259 259 259 259 258 257 256 255 253 251 250 249 248 247 246 244 240 233 226 218 208 199 190 183 179 176 174 174 175 176 177 178 181 184 187 189 191 194 198 204 212 219 227 234 241 246 251 255 258 261 264 267 270 272 273 275 276 277 278 279 280 281 281 282 283 284 285 286 287 288
266 266 265 265 265 265 264 264 263 262 262 260 259 257 256 255 255 254 252 251 250 248 246 245 243 242 240 238 237 235 233 229 223 215 207 198 189 181 175 169 164 160 157 155 156 157 160 161 163 166 169 173 177 182 188 195 204 213 222 229 235 240 246 251 255 259 262 266 269 272 274 276 277 278 279 279 280 281 282 282 283 284 285 286 286 287 288 289
267 267 266 265 264 263 262 260 258 256 254 252 250 249 247 245 243 241 239 237 235 233 230 229 227 225 222 219 214 208 202 195 187 180 173 166 162 157 153 149 145 142 141 142 144 147 149 152 156 160 164 170 178 187 197 207 216 224 230 235 241 246 251 256 260 264 268 271 274 276 278 280 280 281 282 283 283 284 284 285 285 286 287 287 288 289 290 291
265 264 262 261 259 256 254 252 249 246 243 240 237 234 232 229 227 225 222 219 216 212 207 202 197 192 186 182 177 172 169 166 161 156 150 146 142 138 135 132 131 131 133 135 138 142 145 150 155 161 169 179 191 202 211 218 225 231 236 241 247 252 257 262 266 269 272 274 277 279 280 281 282 282 283 285 285 285 286 286 287 287 288 289 290 290 291 292
261 258 256 254 251 248 245 240 236 232 227 222 219 217 215 213 209 204 198 192 184 178 172 166 162 159 157 157 154 150 148 146 142 138 133 129 126 125 124 124 125 128 131 134 138 143 148 155 163 171 183 194 205 216 223 228 233 239 244 249 255 260 264 267 270 273 275 276 278 280 281 281 283 284 283 285 286 287 287 287 288 289 290 290 291 291 292 292
255 251 247 243 239 233 226 219 212 207 203 197 194 191 188 185 179 174 168 163 159 154 151 148 146 144 143 143 140 135 132 129 126 124 122 121 121 121 123 124 127 130 133 138 144 150 157 165 175 185 197 208 217 226 232 237 242 248 253 258 262 265 268 271 274 275 277 279 280 282 282 282 284 286 285 284 286 287 288 288 289 290 291 291 291 291 292 292
232 217 206 202 198 192 186 181 178 176 174 169 165 163 161 158 154 151 148 145 142 139 137 135 133 131 130 130 127 124 121 120 119 119 119 120 122 123 125 127 129 133 138 144 152 160 168 178 189 200 210 220 229 236 241 246 252 257 261 264 267 270 271 273 276 278 279 281 282 284 286 283 282 288 289 287 287 288 289 289 289 290 290 291 291 292 292 292
107 106 109 115 124 132 139 145 148 149 148 146 144 142 140 137 135 134 132 130 129 127 126 125 124 123 123 122 121 119 118 118 118 119 120 122 123 124 127 129 133 138 144 151 161 171 183 195 206 217 226 234 241 247 252 256 261 264 267 269 270 274 277 277 278 281 283 284 283 285 289 288 283 284 289 291 290 290 290 289 289 290 290 290 291 292 292 293
101 99 99 100 103 108 114 121 125 127 128 128 128 127 126 125 124 124 123 123 122 121 121 120 120 119 118 118 117 117 116 117 118 119 120 121 123 125 128 132 137 143 151 161 172 186 202 215 227 236 243 249 253 257 262 265 267 269 271 273 274 276 280 282 282 282 284 286 286 285 288 291 288 284 285 290 292 292 291 290 289 290 290 290 291 292 293 293
100 99 99 100 101 102 106 110 114 116 117 119 120 121 121 121 121 120 119 119 118 118 118 117 117 116 114 114 114 114 114 115 116 117 119 120 122 125 130 135 142 150 161 177 192 209 226 236 245 251 256 260 262 264 268 270 272 274 275 276 278 279 281 284 286 285 284 286 287 287 288 291 291 287 284 285 289 293 293 291 291 290 290 291 291 292 292 293
102 102 102 101 101 101 102 104 107 111 114 117 118 119 120 119 118 118 117 116 116 115 114 113 112 111 110 111 111 110 111 112 114 117 118 121 125 129 136 143 153 166 182 203 220 232 242 250 256 261 264 268 270 271 272 274 276 279 280 280 282 283 283 284 287 287 287 287 287 288 289 291 292 291 289 285 285 289 292 292 292 292 291 291 291 292 292 292
103 103 102 102 103 103 105 106 109 111 113 116 117 118 118 118 117 116 114 113 112 111 110 109 108 108 110 111 110 111 113 115 118 121 123 127 131 137 148 159 174 194 213 230 241 249 256 261 266 269 271 274 275 276 277 278 279 281 283 285 286 287 286 285 287 288 288 289 289 289 290 292 292 292 292 289 287 286 288 290 293 293 292 291 291 292 292 292
105 105 105 105 106 108 109 110 111 112 113 113 114 116 116 116 116 115 113 112 111 110 109 109 109 112 114 114 113 116 119 121 124 126 129 134 139 151 166 187 208 227 241 250 257 262 267 270 274 277 278 280 281 282 283 283 284 285 286 287 287 288 288 286 285 286 286 287 289 290 291 293 291 292 293 292 291 290 289 289 290 291 292 292 292 292 292 293
108 108 108 109 109 110 111 111 112 113 113 112 112 113 114 114 114 114 113 112 112 111 110 111 112 115 115 114 115 118 119 122 125 129 137 145 157 182 205 229 239 249 257 261 266 271 277 280 282 285 286 287 288 288 288 288 288 288 288 287 286 285 287 287 285 285 286 287 289 289 292 294 293 293 293 293 292 291 291 291 291 290 291 291 292 292 293 293
108 109 109 110 110 110 110 110 110 111 111 111 110 110 110 111 111 111 111 110 109 108 108 109 110 111 111 112 114 118 122 128 137 148 164 182 202 224 240 253 257 264 270 275 279 283 286 288 289 290 291 291 291 291 291 291 290 289 287 287 286 285 286 289 288 288 288 289 290 290 292 295 295 294 294 293 293 293 292 292 292 291 291 292 292 293 293 294
107 108 108 109 109 109 108 108 108 107 107 107 106 105 105 105 104 105 106 106 105 106 107 108 110 112 113 117 123 130 143 155 173 194 215 230 246 255 263 273 278 281 284 286 289 291 292 292 293 293 293 293 293 292 292 291 290 290 289 288 289 288 288 290 291 291 291 290 291 291 292 296 297 296 296 295 294 294 293 294 293 292 293 293 293 294 295 296
107 107 107 107 107 108 108 107 106 106 105 104 104 104 104 102 101 102 103 104 105 108 111 115 118 123 127 133 142 156 177 197 228 248 260 271 281 285 285 290 291 291 292 292 294 295 296 296 295 295 294 294 293 292 292 292 291 290 291 290 290 290 289 289 290 292 293 293 293 292 293 298 299 298 298 296 294 294 295 295 295 295 295 295 295 295 296 297
106 106 106 106 106 106 107 107 107 106 106 105 106 108 108 108 108 110 110 110 114 118 122 125 126 131 136 143 160 195 228 257 278 283 288 292 295 295 295 296 297 296 296 296 297 296 296 295 295 294 294 293 293 293 292 293 293 291 291 291 292 292 290 289 289 290 293 293 294 293 293 298 301 299 299 297 294 294 294 295 294 295 295 295 296 296 296 297
106 106 106 106 106 107 107 107 108 109 109 110 114 117 116 118 121 123 124 124 125 126 126 125 120 120 122 110 290 287 292 297 300 300 299 299 299 299 300 301 301 301 300 299 298 296 296 295 295 295 295 294 294 294 293 293 294 293 292 292 291 292 292 292 291 291 292 293 294 293 291 294 299 298 297 296 294 293 293 293 294 295 295 295 296 297 297 298
108 108 108 109 109 109 109 110 111 112 114 117 123 126 127 129 130 130 133 132 127 117 107 99 53 357 328 328 317 309 308 307 307 307 305 304 304 304 304 303 301 301 299 299 298 297 297 296 296 296 296 295 294 294 294 293 293 293 293 293 293 292 292 293 293 292 293 293 294 293 291 291 294 295 294 293 293 292 292 292 293 294 295 295 296 297 297 299
113 113 114 114 113 113 113 113 115 116 118 124 131 135 136 136 135 133 132 126 112 75 22 352 344 332 318 317 316 313 312 310 309 308 306 306 305 304 304 303 302 301 300 300 299 298 298 297 297 296 296 295 294 294 294 294 294 293 293 294 294 294 294 294 294 293 293 293 294 294 293 293 293 294 294 293 293 293 293 294 295 296 295 295 295 296 296 298
118 119 119 119 118 118 118 118 119 118 121 129 136 142 143 144 142 132 113 70 14 349 337 327 325 322 315 313 311 310 309 308 307 306 305 305 304 304 305 304 303 302 300 300 299 298 298 297 297 296 296 295 295 294 294 294 294 294 294 294 294 294 294 294 294 294 293 293 293 293 293 294 295 296 295 295 295 295 295 296 297 297 297 296 296 296 296 297
123 124 124 123 123 124 124 123 122 120 125 133 140 148 155 164 182 297 320 324 322 320 318 316 314 312 310 309 308 307 306 306 305 304 304 304 303 303 303 303 303 302 300 298 297 296 296 296 295 295 295 295 294 294 294 294 294 293 293 293 294 294 294 294 294 294 294 295 295 295 295 295 296 297 296 295 295 295 296 297 298 298 297 297 297 297 298 297
129 130 130 130 131 132 131 130 128 129 135 144 155 186 237 275 294 304 307 310 312 311 309 309 308 307 307 306 306 306 305 305 305 304 304 303 302 301 300 299 300 300 300 299 297 296 294 294 294 293 294 294 294 294 293 293 293 293 293 293 294 294 295 296 296 296 297 297 297 297 297 296 296 296 295 295 294 294 296 297 298 298 297 297 297 298 298 298
137 138 139 141 142 144 144 142 146 155 179 237 275 289 293 296 301 305 305 305 307 307 307 306 306 306 306 306 305 305 304 303 303 302 302 301 301 300 299 298 298 298 298 298 298 297 296 295 294 294 294 294 294 295 295 295 295 295 296 296 296 296 296 297 297 297 296 296 296 296 296 296 297 296 296 295 296 296 297 297 297 296 296 296 297 297 297 297
147 149 151 154 157 162 167 176 206 247 277 289 294 298 300 300 303 305 304 304 304 305 304 304 305 304 305 304 304 303 302 302 301 300 300 299 299 298 298 297 297 297 298 298 299 299 299 298 297 297 297 296 296 297 297 298 298 298 298 298 297 297 296 296 295 295 295 295 296 296 296 296 297 297 296 296 297 297 298 297 297 296 297 297 298 297 296 296
159 163 167 174 184 197 217 242 263 277 286 292 295 297 299 300 301 302 302 302 302 302 301 301 302 301 302 302 301 300 300 299 299 298 298 297 296 296 295 295 295 295 296 296 297 298 299 298 298 299 299 298 299 299 299 299 298 298 298 298 297 296 296 295 294 294 294 295 295 295 296 296 297 297 297 298 298 298 298 298 298 298 298 299 298 297 297 296
177 186 195 207 223 239 256 269 277 284 288 291 293 295 297 298 298 299 299 300 300 300 300 300 300 300 300 299 299 298 298 297 296 296 295 295 295 295 295 295 296 296 296 297 298 298 299 298 298 298 299 299 299 299 299 299 298 298 298 297 297 297 297 297 297 296 295 295 295 296 296 297 297 298 298 298 298 297 297 297 297 296 297 297 296 296 297 297
200 211 225 238 250 260 269 276 281 286 288 291 293 294 295 297 297 298 298 298 299 299 299 299 299 298 298 297 297 296 296 296 295 295 295 295 296 297 297 298 299 299 299 300 300 300 300 299 299 299 299 299 299 299 299 299 299 299 298 298 298 298 299 299 299 299 298 298 298 298 298 298 298 298 298 298 298 297 297 297 297 296 296 296 295 295 295 296
219 230 241 252 261 270 276 281 285 288 290 291 293 295 296 297 297 297 297 298 298 298 298 298 297 297 297 296 296 296 296 296 297 297 298 299 299 300 300 300 300 300 300 300 300 300 300 299 299 300 300 300 300 300 300 300 300 300 299 299 299 299 299 299 299 299 299 299 300 300 301 300 300 300 299 299 298 298 298 298 297 296 296 295 294 294 294 293
235 245 255 263 272 278 283 286 289 291 292 293 294 295 296 296 297 297 297 297 297 297 297 297 297 297 297 297 297 298 298 299 299 300 300 300 301 301 300 300 300 300 300 299 299 299 299 299 299 300 300 300 301 301 301 301 300 300 299 299 299 299 299 299 299 299 300 300 301 302 303 302 302 302 300 299 298 297 296 295 294 293 293 292 292 292 292 291
252 261 268 274 279 283 287 289 291 291 293 294 294 294 295 296 297 297 297 297 297 297 297 297 297 297 298 299 299 300 300 301 301 301 301 301 301 300 300 300 300 300 300 300 300 300 300 300 300 300 300 300 300 300 300 301 300 300 299 299 299 298 299 299 300 301 302 302 303 304 304 303 302 302 301 299 299 298 297 295 294 293 292 292 292 292 292 292
266 270 274 279 282 285 287 288 289 290 291 292 293 294 295 296 297 297 297 297 297 297 297 298 298 299 299 300 300 301 301 301 301 301 301 301 301 301 301 301 301 301 301 301 301 301 301 300 300 300 300 300 300 301 301 300 300 299 299 299 299 299 300 301 302 302 303 304 304 304 305 305 304 302 302 301 300 301 300 299 298 297 296 296 295 294 293 292
271 274 276 279 281 283 285 287 289 290 292 293 294 295 296 296 297 297 297 298 298 299 299 300 300 300 301 301 301 301 301 301 301 301 302 302 302 302 302 302 302 302 302 301 301 301 301 301 301 301 301 301 301 302 302 302 301 300 300 300 300 301 302 303 303 303 304 305 305 304 306 308 308 307 306 306 306 307 306 305 304 303 302 302 301 299 297 295
273 276 278 280 282 285 287 288 290 292 293 294 295 296 296 297 298 298 299 299 300 300 300 301 301 301 302 302 302 302 302 303 303 303 303 303 303 303 302 302 302 302 301 301 301 300 301 301 301 301 301 302 302 303 303 303 302 301 301 301 302 303 304 305 305 305 307 307 307 306 308 311 311 310 310 310 311 311 310 309 308 307 307 307 306 305 304 302
276 278 280 283 286 289 290 291 292 293 294 294 295 296 297 298 299 299 300 301 301 301 301 302 302 302 303 304 304 304 305 305 305 305 304 304 303 303 302 302 301 301 301 301 301 301 301 302 303 303 303 303 303 303 303 303 303 303 303 303 304 305 305 306 306 307 308 308 308 308 309 312 313 311 311 311 311 311 310 309 308 308 309 309 308 307 306 306
279 282 284 287 289 290 291 291 292 293 295 296 297 298 299 299 300 301 301 302 302 302 303 303 304 305 306 306 306 307 306 306 306 305 304 304 303 302 302 302 302 302 302 302 303 303 304 304 305 305 305 304 305 305 306 305 305 304 304 304 304 304 305 306 307 308 309 309 309 309 310 312 312 309 309 310 310 309 308 308 308 308 309 309 308 307 307 307
282 285 286 288 289 290 291 292 294 295 296 297 298 299 300 301 302 302 303 303 304 305 306 306 307 307 307 307 307 306 305 305 304 304 304 304 303 303 303 303 303 304 304 305 305 306 306 307 307 307 306 305 305 305 304 304 303 303 303 304 304 305 306 308 310 311 312 312 312 311 311 312 312 309 309 309 308 307 307 308 308 308 309 309 308 307 307 307
284 285 286 288 289 291 293 294 296 297 298 300 301 302 303 303 304 305 305 306 307 307 307 307 307 307 307 306 305 305 304 304 304 304 304 305 305 305 305 305 306 306 307 307 308 308 308 309 309 310 309 308 307 307 306 305 305 305 305 306 306 308 309 312 313 313 312 312 312 311 311 312 312 309 309 309 308 307 308 308 308 308 308 308 307 307 307 308
285 286 288 290 292 293 295 297 298 300 301 302 303 304 305 306 306 307 307 307 307 306 306 306 306 306 306 306 306 306 306 306 306 306 306 307 307 307 307 308 308 308 308 309 309 310 310 310 310 311 310 310 310 310 309 310 310 309 309 308 309 310 311 313 313 312 310 311 311 311 310 311 311 309 309 309 308 308 308 308 308 307 307 307 306 306 307 307
287 289 291 293 295 297 298 300 301 303 304 305 306 307 307 307 307 306 306 305 305 305 305 305 306 306 307 307 308 308 308 309 309 309 309 310 310 310 310 310 310 310 310 310 310 310 310 310 310 311 311 310 310 310 311 312 312 311 309 308 308 309 310 311 311 310 309 309 310 310 309 309 309 308 309 309 308 308 308 308 307 306 306 305 305 304 304 305
289 292 294 296 298 300 301 303 304 305 306 307 307 306 306 305 305 304 304 304 304 305 306 306 307 308 308 309 309 309 310 310 311 312 312 312 312 312 312 311 311 311 311 310 310 310 310 309 309 312 313 312 310 311 312 313 312 310 308 306 306 307 308 309 308 308 308 308 308 307 306 307 307 307 307 307 307 306 306 306 305 304 303 303 302 302 303 304
294 296 298 299 301 303 304 305 306 306 306 306 305 305 304 304 304 304 304 305 306 307 308 309 309 309 310 310 310 311 311 312 312 312 312 312 311 311 311 311 311 310 310 310 310 310 310 310 310 312 314 312 311 311 312 312 310 307 305 304 304 306 308 308 307 306 305 305 305 304 303 304 305 304 303 304 304 303 303 302 301 301 301 301 302 302 303 303
298 300 301 302 303 304 305 306 306 305 305 304 304 304 304 304 305 305 307 308 309 310 310 311 311 312 312 313 313 313 313 313 313 312 312 312 312 312 312 311 311 311 311 312 312 312 312 312 312 313 314 312 310 311 313 312 309 306 304 303 304 306 306 305 304 303 302 302 302 302 302 304 303 302 302 302 302 300 300 299 299 299 299 300 300 301 301 300
299 300 301 303 304 305 305 305 305 305 304 304 304 305 305 307 308 309 310 311 312 312 313 313 314 315 315 315 315 316 316 316 316 315 315 314 314 314 314 314 314 314 315 315 315 315 314 314 313 312 311 310 309 310 311 310 308 306 303 302 303 303 302 301 302 303 303 303 302 302 303 303 302 301 301 300 299 299 298 297 297 296 296 297 298 298 298 297
299 300 302 304 305 305 305 305 305 305 305 306 307 309 309 310 311 312 313 313 314 315 316 316 317 317 317 318 318 318 318 318 318 317 317 318 318 319 319 319 319 319 318 318 318 318 316 315 314 313 312 311 310 310 310 309 307 305 303 303 304 304 303 302 303 304 304 304 304 303 303 302 301 301 301 300 299 297 296 295 294 293 293 294 295 295 295 295